INTELSAT 33E DEB, 61989

Orbit data source: Space-Track

INTELSAT 33E DEB, 61989 is space debris in GEO originally from a launch on Wed, 24 Aug 2016 UTC launched from the French Guiana (FRGUI). Debris objects in space refer to the collection of defunct objects orbiting the Earth. Examples of debris include non-operational satellites, rocket bodies, and fragments generated from explosions, collisions, or faulty payload assembly.

Loading next visibility...
Identifier
61989, 2016-053F
Orbit
GEO
Country
Flag of UnknownUnknown / ITSO
Related business
Manufacturer
Boeing/ES
Mission
Spacecraft
Bus & Motor
Unknown
Mass
Unknown
Launch date (UTC)
2016-08-24 (9 years ago)
Launch vehicle
Unknown
Launch site
French Guiana (FRGUI)
Object type
Payload
Rocket body
Debris
Shape & HBR
Unknown shape, 1.1 m
Radar Cross Section
RCS unknown

Expand to show TLE details & history
Last TLE update: 1 day ago

TLE from 1 day ago
0 INTELSAT 33E DEB
1 61989U 16053F   25340.32510563 -.00000161  00000-0  00000-0 0  9996
2 61989   2.0234 120.9306 0871568 113.3383 255.5821  0.98063061  3952
Epoch: 2025-12-06T07:48Z
TLE epoch observation values (Epoch: 2025-12-06T07:48:09.126Z)
Latitude
-0°
Longitude
-71.95206°
Altitude
37,658.999 km
Speed
2.965 km/s
True Right ascension
08h 01m 45s
True Declination
0° 00' 00"
Sunlit
Object was in daylight at epoch
Visualization orbit readout
Latitude
Unknown
Longitude
Unknown
Altitude
Unknown
Speed
Unknown
Apparent Right ascension
Unknown
Apparent Declination
Unknown
Sunlit
N/A
Visualization observer readout
Local Sidereal Time
13:33:24
Azimuth
Unknown
Elevation
Unknown
Doppler factor
Unknown
Orbital elements
Apogee altitude
40,148.451 km
Perigee altitude
32,688.426 km
Semi-major axis
42,796.576 km
Eccentricity
0.08716
Inclination
2.0234°
RAAN
120.9306°
Arg. of periapsis
113.3383°
True anomaly
246.20679°
Mean anomaly
255.5821°
Eccentric anomaly
250.86431°
Mean motion
0.24515 °/min
Orbital period
1,468.5 mins
BSTAR
0
Loading maneuver chart data...
Computing Atmospheric mass density...
Loading historical data...
Loading historical data...
Loading historical data...
Loading historical data...
Loading historical data...
Loading historical data...
Loading historical data...

Documentation

Showing up to 5 results
|